Regional Weather Roundup
Issued by NWS Charleston, SC

Current Version | Previous Version | Graphics & Text | Print | Product List | Glossary On
Versions: 1 2 3 4 5 6 7 8 9 10 11 12 13 14 15 16 17 18 19 20 21 22 23 24 25 26 27 28 29 30 31 32 33 34 35 36 37 38 39 40 41 42 43 44 45 46 47 48 49 50
000
ASUS42 KCHS 191812
RWRCHS

Regional Weather Roundup
National Weather Service Charleston SC
200 PM EDT THU APR 19 2018

NOTE: "fair" indicates few or no clouds below 12,000 feet with no
significant weather and/or obstructions to visibility.

Not all stations are quality controlled. Use data with caution,
especially dewpoint observations.

SCZ027-030-031-034>040-042>050-191900-
...Southeast South Carolina...

CITY           SKY/WX    TMP DP  RH WIND       PRES   REMARKS
N Charleston   FAIR      82  57  42 W18G26    29.91F
6HR MIN TEMP:  66; 6HR MAX TEMP:  83;

Waterfront Prk   N/A     79  60  52 W12G20    29.75F
Mount Pleasant FAIR      82  59  44 W15G23    29.91S
Johns Island   MOCLDY    77  66  69 SW10G21   29.92F
Pinopolis        N/A    N/A N/A N/A W16G26    29.83F
Moncks Corner  MOCLDY    79  54  41 W8G21     29.91S
Summerville    FAIR      79  57  47 SW17G24   29.92F
Beaufort MCAS  FAIR      83  61  47 W17G29    29.94F
6HR MIN TEMP:  67; 6HR MAX TEMP:  84;

Beaufort Arpt  FAIR      82  61  47 W18G25    29.94F
Hilton Head Is NOT AVBL
Walterboro     FAIR      79  57  47 W21G26    29.94S
Allendale      FAIR      79  57  47 W10G21    29.94S

...Southern Midlands and Pee Dee...

CITY           SKY/WX    TMP DP  RH WIND       PRES   REMARKS
Georgetown     FAIR      82  55  39 W17G28    29.89S
Kingstree      FAIR      79  52  38 SW18G29   29.88S
Orangeburg     PTSUNNY   78  53  41 W20G29    29.92R
6HR MIN TEMP:  65; 6HR MAX TEMP:  81;

Barnwell       FAIR      81  54  39 W14G24    29.94R
Aiken          FAIR      77  41  27 W22G35    29.99R
Manning        MOCLDY    75  52  43 W17G24    29.90S
Columbia       FAIR      82  43  25 W24G36    29.90S
6HR MIN TEMP:  67; 6HR MAX TEMP:  82;

Sumter         MOSUNNY   81  46  28 W20G30    29.86S
6HR MIN TEMP:  66; 6HR MAX TEMP:  82; 6HR PCP: TRACE;

Florence       FAIR      82  50  32 W21G35    29.86R
6HR MIN TEMP:  68; 6HR MAX TEMP:  82;

Myrtle Beach   FAIR      82  58  43 W21G29    29.87S
N Myrtle Beach FAIR      82  54  37 W17G29    29.83F
6HR MIN TEMP:  68; 6HR MAX TEMP:  83;


$$

GAZ063-065-086>088-099>101-113>116-118-119-134>141-150-191900-
...Southeast Georgia...

CITY           SKY/WX    TMP DP  RH WIND       PRES   REMARKS
Savannah Arpt  FAIR      83  60  45 W21G33    29.97F
6HR MIN TEMP:  66; 6HR MAX TEMP:  84;

Hunter AAF     FAIR      83  61  47 W21G28    29.94F
6HR MIN TEMP:  65; 6HR MAX TEMP:  84;

Fort Stewart   FAIR      82  60  45 W15G24    29.96F
6HR MIN TEMP:  66; 6HR MAX TEMP:  82;

Statesboro     PTSUNNY   79  54  41 W12G26    29.98F
Sylvania       MOCLDY    81  63  54 W12G24    29.98S
Claxton        FAIR      80  62  52 SW18G26   29.99F

...CSRA, Central and far Southeast Georgia...

CITY           SKY/WX    TMP DP  RH WIND       PRES   REMARKS
Thomson        FAIR      75  41  29 NW17G23   30.04S
Augusta-Bush   FAIR      80  48  32 W18G29    29.95S
6HR MIN TEMP:  65; 6HR MAX TEMP:  81;

Augusta-Daniel FAIR      80  48  32 W9G24     29.97R
Swainsboro     MOCLDY    79  59  50 W13G20    29.99S
Vidalia        PTSUNNY   79  63  57 W14G22    30.01S
Eastman        CLOUDY    81  48  31 W13G20    30.04F
Hazlehurst     FAIR      82  57  43 W13G21    30.01S
Alma           FAIR      82  60  47 W13G22    30.01F
6HR MIN TEMP:  65; 6HR MAX TEMP:  84;

Waycross       PTSUNNY   84  55  37 W16G23    30.01F
Jesup          NOT AVBL
Baxley         FAIR      79  59  50 W16G24    30.01S
Brunswick      PTSUNNY   82  59  44 W18G25    30.01S
Saint Simons   FAIR      83  62  49 W13G24    30.00F
6HR MIN TEMP:  64; 6HR MAX TEMP:  83;


$$

SCZ027-028-034-036>038-045-046-048>050-GAZ119-141-191900-
...Lake and Supplemental Coastal Observations...

STATION/POSITION TIME  TEMP    WIND        PRES    WAVE   SWELL
                       AIR SEA DIR/SP/G            HT/PER HT/PER/DIR
                 (UTC) (F)     (DEG/KT/KT) (MB)    (FT/S) (FT/S/D)
Winyah Bay       1645   78     270/ 14     1012.0
Lake Murray      1720   73     270/ 15/ 25 1011.9F
ACE Basin NERRS  1645   80     350/  7       N/A
Fort Pulaski     1748   79 65  280/ 17/ 22 1014.8F
Sapelo Island    1700   78     250/ 15     1016.0

$$

ANZ835-935-AMZ111-154-330-350-352-354-370-450-454-472-191900-
...C-MAN and Buoy Observations...

STATION/POSITION TIME  TEMP    WIND        PRES    WAVE   SWELL
                       AIR SEA DIR/SP/G            HT/PER HT/PER/DIR
                 (UTC) (F)     (DEG/KT/KT) (MB)    (FT/S) (FT/S/D)
Buoy 41004       1750   67 67  220/ 21/ 27 1013.9F   5/ 6   2/160/ 9
Buoy 41008       1750   67 66  190/ 16/ 19 1015.3F   3/ 5   2/110/10
Folly Beach CMAN 1700   68     220/ 17/ 21 1014.2F
Capers Nearshore 1708   66 63  230/ 17/ 23 1013.2F
Fripp Nearshore  1708   66 64  220/ 14/ 19 1014.1F


STATION/POSITION TIME  TEMP    WIND        PRES    WAVE   SWELL
                       AIR SEA DIR/SP/G            HT/PER HT/PER/DIR
                 (UTC) (F)     (DEG/KT/KT) (MB)    (FT/S) (FT/S/D)
5E St. Marys GA  1730      68                N/A     2/ 5
Frying Pan Buoy  1750   67 66  210/ 21/ 27 1012.0F   7/ 7   2/340/14
Buoy 41025       1800   68 68  230/ 23/ 31 1008.8
Cape Lookout NC  1700          220/ 17/ 22 1009.0F
Buoy 41002       1750   73 72  220/ 17/ 23 1016.2F   7/ 7   2/330/16
Buoy 41010       1750   75 74  220/ 12/ 14 1019.4F   3/ 5   2/100/ 8
St Augustine FL  1800   80 67  240/ 15/ 22 1018.1F


$$




USA.gov is the U.S. government's official web portal to all federal, state and local government web resources and services.